This is the latest recevied weather packets stored in our database for station/object VA3WWD-2. If no packets are shown the sender has not sent any weather packets the latest 1 day(s).
| Time | Temp. | Humidity | Pressure | Rain* | Wind** | Luminosity | Snow |
|---|---|---|---|---|---|---|---|
| 1778014850 | 7.78° C | 41% | - | 0 mm | 0 m/s | - | - |
| 1778014549 | 8.33° C | 39% | - | 0 mm | 0 m/s | - | - |
| 1778013653 | 8.33° C | 38% | - | 0 mm | 0 m/s | - | - |
| 1778013355 | 7.78° C | 38% | - | 0 mm | 0 m/s | - | - |
| 1778012756 | 7.78° C | 39% | - | 0 mm | 0 m/s | - | - |
| 1778012160 | 7.22° C | 37% | - | 0 mm | 0 m/s | - | - |
| 1778011859 | 7.78° C | 36% | - | 0 mm | 0 m/s | - | - |
| 1778011561 | 7.78° C | 38% | - | 0 mm | 0 m/s | - | - |
| 1778010962 | 7.78° C | 38% | - | 0 mm | 0 m/s | - | - |
| 1778010664 | 8.33° C | 36% | - | 0 mm | 0 m/s | - | - |
| 1778010366 | 8.33° C | 38% | - | 0 mm | 0 m/s | - | - |
| 1778010065 | 7.22° C | 38% | - | 0 mm | 0 m/s | - | - |
| 1778009767 | 8.33° C | 38% | - | 0 mm | 0 m/s | - | - |
| 1778009469 | 7.78° C | 38% | - | 0 mm | 0 m/s | - | - |
| 1778009168 | 7.78° C | 39% | - | 0 mm | 0 m/s | - | - |
| 1778008870 | 7.78° C | 40% | - | 0 mm | 0 m/s | - | - |
| 1778008572 | 8.33° C | 41% | - | 0 mm | 0 m/s | - | - |
| 1778008272 | 7.78° C | 37% | - | 0 mm | 0 m/s | - | - |
| 1778007974 | 8.33° C | 41% | - | 0 mm | 0 m/s | - | - |
| 1778007676 | 7.78° C | 38% | - | 0 mm | 0 m/s | - | - |
| 1778007375 | 8.33° C | 41% | - | 0 mm | 0 m/s | - | - |
| 1778007077 | 7.78° C | 39% | - | 0 mm | 0 m/s | - | - |
| 1778006779 | 7.78° C | 39% | - | 0 mm | 0 m/s | - | - |
| 1778006478 | 8.33° C | 42% | - | 0 mm | 0 m/s | - | - |
| 1778005882 | 7.78° C | 42% | - | 0 mm | 0 m/s | - | - |
* Rain latest hour (hover to see other rain measurements)
** Current wind speed in m/s (hover to see current wind gust speed)